Wind_Speed
46 41 43 46 46 44 42 43 45 41 36 35 34 30 28 29 25 16 16 15 10 7 14 10 8 7 8 7 7 7 10 8 14 14 11 9 6 8 5 7 6 7 4
44 47 45 43 49 49 46 45 45 45 39 32 28 35 33 29 28 21 15 16 14 12 10 13 9 9 11 8 7 11 15 15 16 10 11 12 5 7 9 9 7 6 3
43 50 51 50 51 51 49 48 48 45 39 33 27 25 33 32 31 29 23 19 16 15 12 13 13 11 10 7 8 12 13 15 13 11 11 8 4 12 9 8 6 5 2
42 45 49 54 54 54 50 50 47 44 40 35 31 28 32 34 36 31 30 25 19 17 14 11 16 15 13 10 7 12 13 15 15 11 9 11 10 12 7 8 7 5 4
46 47 52 53 56 53 55 52 48 44 42 38 34 32 31 33 31 28 24 22 23 19 16 13 17 15 14 11 12 14 17 14 14 14 12 10 8 14 5 9 12 13 9
47 50 56 56 54 54 54 54 51 47 44 41 38 35 34 31 32 29 26 25 24 21 18 15 18 16 14 15 15 14 16 17 15 14 12 14 11 11 9 6 8 12 10
46 49 47 51 50 57 57 57 54 51 48 44 41 38 36 33 32 32 28 27 27 25 23 20 17 19 16 15 16 16 15 19 17 15 13 11 11 11 9 7 7 11 13
49 48 53 61 57 59 59 59 58 55 51 46 42 39 37 34 33 34 31 29 27 25 21 21 19 16 18 17 16 18 18 17 17 18 15 13 13 12 10 11 9 10 12
51 50 52 56 54 61 61 60 58 55 53 48 43 42 39 37 36 34 34 32 31 27 23 23 22 19 16 18 17 18 20 17 17 19 19 18 18 17 14 13 15 15 13
48 47 50 55 58 62 63 60 58 55 53 49 45 43 41 39 37 36 34 34 31 29 27 24 23 19 18 17 18 18 19 20 19 19 20 23 22 22 20 18 15 20 18
53 56 48 54 62 61 61 61 58 54 54 50 47 45 42 41 42 40 36 34 33 31 30 26 22 22 22 21 23 21 19 23 23 22 22 22 23 24 24 22 20 19 20
62 56 53 54 53 52 55 61 57 55 52 46 46 44 43 42 43 44 41 37 36 34 30 30 30 25 25 27 26 26 23 24 26 27 26 25 24 26 27 27 25 24 23
54 54 49 50 52 53 54 58 58 56 52 48 46 45 43 42 42 44 42 40 38 37 36 32 34 36 34 27 28 30 27 24 26 28 31 31 29 30 29 31 31 30 28
54 52 49 51 53 55 58 58 57 54 50 47 46 45 43 41 39 40 42 42 40 39 40 41 39 36 36 36 34 30 29 28 26 27 30 32 33 34 33 32 33 34 33
51 52 51 51 54 53 57 55 54 53 50 46 44 43 40 38 37 38 39 40 41 40 41 42 45 43 42 39 36 35 35 33 31 30 31 32 33 33 33 34 34 34 36
50 54 55 54 58 55 56 55 54 51 49 44 42 39 39 38 38 37 36 36 38 39 39 42 43 45 46 46 45 43 40 39 39 38 37 37 37 37 37 37 36 36 36
48 51 52 58 61 58 56 55 50 49 47 43 40 39 37 38 37 36 37 37 36 36 38 40 41 44 46 46 46 45 45 45 45 44 42 42 42 41 42 41 41 41 40
30 35 41 41 43 42 46 47 45 46 45 44 40 39 39 37 35 35 37 37 35 36 36 38 40 41 42 41 41 42 43 45 46 46 46 45 44 43 42 41 44 44 45
34 29 30 36 36 36 38 40 41 42 44 45 43 42 40 38 36 36 34 32 32 32 33 33 35 38 39 37 36 36 38 42 44 45 46 46 47 46 44 44 45 46 49
27 28 28 27 23 24 26 29 39 43 44 45 43 42 42 40 40 37 36 34 35 35 35 36 36 36 35 34 33 32 33 37 40 41 45 48 50 49 48 47 46 51 56
28 23 23 22 20 16 13 24 29 37 37 40 39 40 41 39 38 39 38 39 39 39 40 39 39 38 37 35 32 30 31 34 35 38 40 40 40 40 42 44 48 51 47
28 23 20 18 14 12 10 12 13 27 36 35 35 39 40 38 37 37 38 38 39 40 40 41 41 40 38 35 31 29 28 29 32 34 37 37 36 37 37 38 40 40 39
27 25 24 20 17 11 7 6 6 8 10 15 26 33 36 35 34 33 33 33 33 35 37 37 38 38 34 29 26 25 26 25 28 29 29 28 28 30 35 38 38 40 44
21 17 15 16 15 11 7 4 0 4 9 13 16 19 20 21 28 32 31 28 28 30 33 34 32 29 25 25 25 26 27 26 27 26 26 26 28 32 34 37 38 40 43
21 17 11 8 6 5 5 7 8 7 6 10 15 19 24 24 24 27 27 26 25 24 23 22 23 25 25 25 25 23 22 23 24 24 24 23 24 27 29 30 32 35 38
18 13 9 6 7 6 6 10 12 12 12 12 12 11 13 17 19 24 24 24 22 21 21 21 21 23 23 24 23 22 21 20 19 21 24 27 28 28 28 26 26 26 26
Wind_Direction
202 203 203 202 204 205 208 209 207 204 202 205 209 205 202 198 206 199 208 215 229 231 221 216 194 175 182 191 197 192 162 163 177 152 147 149 128 190 177 158 142 119 121
195 203 207 201 202 203 207 210 209 206 205 210 216 216 211 205 204 208 215 214 224 238 227 230 220 217 201 190 186 175 161 155 164 154 147 162 135 143 160 149 146 154 119
191 200 206 206 201 205 207 212 210 208 208 210 214 216 217 217 212 210 215 220 223 236 239 231 217 204 207 212 201 189 171 179 172 171 158 165 152 157 166 167 162 201 180
191 197 200 209 206 209 212 208 207 207 211 215 216 215 209 209 210 209 215 222 224 230 241 233 215 217 216 210 201 195 188 187 192 188 180 192 190 178 181 192 211 221 228
195 197 195 201 205 209 208 209 212 213 217 219 223 222 216 214 214 211 211 222 225 228 238 245 222 221 220 215 206 196 191 186 197 206 198 192 181 200 218 205 211 225 233
199 202 203 202 203 207 207 209 212 215 220 224 225 225 222 219 217 215 217 222 225 230 235 236 220 220 224 219 211 206 209 200 203 203 198 210 209 206 216 225 232 240 248
200 202 199 199 202 208 209 211 213 216 220 223 226 227 225 224 220 217 217 219 225 228 230 229 226 222 225 227 219 215 206 206 211 211 204 204 210 219 222 229 258 244 239
200 198 201 201 202 210 213 213 214 216 219 222 226 228 226 224 223 221 220 220 224 230 230 233 234 236 227 227 226 221 216 215 217 219 218 206 197 204 228 227 241 237 238
203 206 201 201 201 209 216 216 214 217 219 221 224 227 227 226 225 224 223 225 228 230 232 235 237 236 228 226 233 230 224 218 222 221 224 222 214 217 224 229 252 240 238
205 204 201 199 202 211 217 218 219 217 220 222 225 228 229 229 229 227 223 223 224 229 231 233 234 233 229 226 231 237 232 229 221 220 225 225 223 226 228 234 236 236 248
201 203 204 202 205 208 211 218 220 218 219 223 226 228 230 231 233 231 227 225 224 226 232 230 234 233 235 234 233 239 240 235 232 226 226 226 224 226 227 229 230 235 244
202 204 201 202 199 200 208 216 220 221 221 225 226 228 230 231 233 233 231 227 227 224 228 233 234 235 237 239 240 241 245 245 240 237 235 230 228 230 230 232 237 240 242
200 200 193 196 198 199 207 213 220 222 223 223 225 228 230 232 234 235 234 232 229 228 226 228 234 238 241 241 239 242 246 250 250 248 243 242 239 238 237 239 241 243 244
191 191 191 195 202 202 206 214 217 221 223 224 225 228 231 234 235 235 236 237 234 232 231 232 235 239 242 244 244 243 244 247 250 252 252 251 250 251 249 247 248 250 250
184 186 189 192 201 200 206 213 216 219 221 224 226 228 230 235 239 240 237 238 240 238 237 237 238 240 242 244 245 247 249 251 252 254 256 257 258 258 258 256 256 253 254
183 188 190 190 200 204 209 210 214 217 221 224 229 231 231 232 236 240 243 240 240 241 241 240 242 242 243 244 248 251 253 255 258 259 261 262 263 264 263 261 260 261 257
181 186 187 192 202 207 208 210 214 216 220 224 227 230 232 234 236 239 240 243 244 244 243 244 245 247 248 248 250 253 257 260 262 264 265 265 264 265 266 266 265 264 264
174 185 185 190 195 199 205 211 212 214 221 225 228 232 234 235 237 239 241 243 246 249 251 250 251 253 253 253 254 255 258 261 265 268 270 270 270 267 265 267 268 266 265
100 123 176 194 195 199 209 211 215 221 222 225 229 233 235 238 239 241 243 246 247 249 254 259 259 259 261 261 260 258 259 260 262 265 268 270 271 273 276 275 273 272 269
97 105 110 120 149 173 193 213 225 225 228 230 234 236 240 241 243 245 247 250 250 254 257 260 263 266 268 268 268 265 262 262 264 267 269 271 272 274 274 272 273 274 276
87 104 116 115 107 103 158 203 216 224 233 241 243 244 245 249 252 253 253 254 256 256 257 260 262 264 266 268 270 269 266 266 269 270 271 275 278 278 278 275 273 274 278
78 86 100 102 105 102 102 118 181 224 231 233 236 243 248 251 251 251 254 254 253 255 257 259 260 262 264 267 271 271 268 267 266 269 274 277 278 279 279 279 281 284 288
66 82 90 95 98 103 109 130 147 174 191 216 234 242 243 246 251 254 255 254 254 253 254 255 258 262 266 272 273 268 268 268 268 269 274 278 280 283 283 282 284 284 279
50 63 84 87 87 85 74 66 318 246 239 234 229 230 235 238 241 244 248 249 253 255 255 254 258 266 267 266 262 261 262 263 264 268 271 275 275 278 279 281 282 282 283
31 40 45 48 58 57 36 346 314 289 261 259 258 252 250 251 238 234 235 238 248 254 257 260 259 261 258 258 259 258 262 263 263 265 269 273 276 281 285 287 288 289 290
21 28 34 12 7 3 347 326 314 299 274 254 245 250 249 240 228 225 227 230 236 237 239 244 250 253 252 253 257 257 260 262 265 269 275 278 281 282 285 287 288 284 285
Height
1511 1517 1522 1527 1533 1537 1540 1544 1549 1553 1557 1561 1564 1567 1570 1572 1574 1576 1579 1581 1582 1584 1584 1586 1588 1588 1590 1591 1591 1592 1593 1594 1595 1597 1598 1599 1600 1601 1602 1602 1602 1602 1602
1503 1511 1517 1521 1526 1530 1534 1539 1544 1549 1553 1557 1560 1564 1567 1570 1573 1575 1577 1579 1581 1583 1584 1585 1587 1588 1590 1591 1592 1593 1593 1595 1596 1598 1598 1600 1601 1600 1601 1602 1602 1603 1603
1491 1501 1509 1513 1519 1522 1527 1532 1537 1543 1548 1553 1558 1561 1565 1568 1570 1572 1574 1577 1580 1582 1584 1585 1586 1588 1589 1590 1591 1593 1594 1595 1596 1598 1600 1600 1601 1601 1602 1602 1602 1603 1603
1485 1492 1500 1506 1510 1515 1522 1527 1533 1539 1544 1548 1553 1556 1558 1560 1563 1568 1572 1575 1577 1580 1582 1583 1584 1586 1588 1589 1590 1591 1593 1594 1596 1598 1599 1601 1601 1602 1603 1603 1603 1603 1603
1477 1484 1489 1495 1503 1510 1517 1522 1528 1533 1538 1543 1547 1551 1554 1557 1561 1565 1569 1572 1575 1577 1579 1581 1582 1584 1586 1587 1589 1590 1591 1593 1596 1597 1599 1600 1601 1602 1602 1602 1603 1603 1603
1469 1476 1483 1492 1497 1504 1511 1517 1522 1527 1532 1537 1542 1546 1550 1553 1557 1561 1564 1568 1571 1573 1575 1578 1580 1582 1583 1585 1587 1589 1591 1592 1594 1595 1597 1599 1600 1601 1601 1601 1602 1602 1603
1464 1472 1480 1486 1491 1495 1501 1508 1514 1520 1525 1531 1536 1540 1544 1549 1552 1556 1560 1564 1567 1569 1572 1575 1577 1578 1580 1583 1585 1587 1588 1590 1591 1594 1596 1597 1599 1600 1601 1600 1600 1599 1601
1458 1463 1467 1472 1479 1485 1493 1500 1506 1513 1518 1524 1529 1534 1539 1544 1548 1552 1556 1559 1563 1566 1569 1572 1574 1576 1578 1580 1582 1584 1587 1588 1590 1592 1595 1596 1597 1598 1598 1598 1599 1597 1597
1450 1453 1459 1468 1475 1478 1483 1490 1498 1506 1511 1518 1524 1528 1533 1538 1542 1546 1551 1555 1558 1562 1566 1568 1571 1573 1575 1577 1580 1582 1584 1586 1588 1590 1593 1594 1595 1595 1595 1596 1596 1596 1594
1444 1448 1454 1459 1466 1470 1475 1483 1490 1497 1504 1512 1517 1522 1527 1531 1536 1541 1545 1549 1553 1556 1561 1564 1568 1570 1572 1575 1576 1578 1581 1583 1585 1587 1588 1589 1590 1591 1592 1592 1592 1592 1592
1435 1438 1448 1453 1457 1464 1471 1476 1483 1491 1498 1505 1510 1516 1521 1525 1530 1535 1539 1544 1548 1551 1555 1560 1564 1566 1568 1570 1573 1575 1577 1578 1580 1582 1583 1585 1586 1586 1588 1589 1589 1589 1589
1421 1428 1436 1445 1453 1460 1465 1470 1476 1484 1490 1497 1503 1508 1514 1519 1523 1527 1532 1538 1541 1547 1551 1555 1559 1560 1563 1566 1568 1570 1571 1572 1574 1577 1579 1580 1581 1581 1583 1583 1583 1584 1585
1417 1424 1431 1442 1445 1453 1459 1464 1470 1476 1483 1491 1496 1502 1507 1512 1516 1520 1524 1530 1536 1541 1546 1549 1551 1554 1557 1560 1563 1565 1567 1568 1569 1570 1572 1574 1576 1576 1577 1578 1579 1579 1581
1404 1415 1424 1432 1438 1445 1451 1456 1464 1471 1478 1484 1490 1495 1500 1505 1510 1514 1518 1523 1529 1534 1538 1542 1545 1548 1551 1554 1557 1559 1561 1563 1564 1565 1566 1568 1569 1570 1572 1574 1575 1576 1577
1396 1406 1414 1425 1432 1440 1447 1452 1460 1465 1471 1477 1482 1487 1494 1499 1504 1507 1512 1516 1521 1525 1530 1534 1537 1540 1543 1546 1549 1552 1554 1556 1558 1559 1560 1560 1561 1562 1564 1566 1567 1569 1569
1390 1399 1408 1416 1425 1430 1438 1445 1453 1459 1464 1470 1474 1482 1487 1492 1495 1500 1504 1509 1513 1516 1521 1524 1527 1530 1532 1536 1540 1544 1546 1548 1550 1550 1552 1553 1554 1554 1555 1557 1559 1560 1561
1385 1392 1400 1407 1416 1423 1432 1439 1446 1454 1459 1463 1469 1474 1479 1483 1488 1493 1497 1500 1504 1509 1511 1514 1518 1520 1523 1527 1531 1535 1537 1538 1539 1540 1543 1543 1544 1545 1546 1547 1548 1550 1550
1388 1396 1402 1410 1417 1424 1431 1438 1445 1451 1455 1460 1465 1469 1473 1478 1482 1486 1489 1493 1497 1499 1503 1506 1509 1511 1514 1519 1523 1527 1529 1530 1530 1530 1531 1531 1532 1533 1536 1538 1537 1538 1537
1394 1397 1402 1409 1416 1423 1428 1435 1441 1446 1452 1455 1458 1462 1467 1472 1476 1478 1483 1487 1490 1493 1495 1497 1499 1501 1504 1510 1515 1519 1521 1520 1520 1520 1520 1520 1520 1522 1526 1527 1527 1525 1521
1399 1402 1406 1410 1416 1422 1427 1431 1435 1440 1444 1448 1452 1458 1461 1466 1468 1473 1477 1481 1484 1486 1489 1490 1492 1494 1497 1501 1504 1509 1511 1510 1511 1511 1509 1509 1510 1513 1516 1517 1517 1511 1506
1402 1405 1407 1410 1416 1421 1424 1428 1432 1435 1439 1444 1449 1452 1455 1458 1462 1466 1470 1474 1476 1478 1480 1483 1485 1487 1489 1493 1496 1499 1500 1500 1501 1501 1500 1501 1503 1505 1505 1505 1503 1499 1504
1404 1407 1408 1411 1416 1420 1424 1426 1431 1435 1438 1440 1444 1447 1450 1453 1457 1460 1463 1466 1469 1471 1473 1475 1476 1479 1482 1485 1488 1490 1491 1493 1492 1492 1493 1494 1495 1495 1495 1495 1493 1493 1493
1409 1411 1412 1414 1417 1421 1424 1427 1430 1432 1434 1437 1440 1443 1447 1450 1452 1455 1457 1460 1462 1464 1465 1467 1469 1471 1475 1478 1480 1481 1483 1485 1485 1486 1487 1488 1488 1487 1486 1486 1485 1485 1484
1414 1415 1415 1416 1418 1420 1423 1426 1428 1430 1432 1433 1437 1439 1441 1443 1446 1449 1451 1454 1456 1458 1459 1461 1464 1466 1469 1471 1472 1474 1476 1477 1478 1479 1480 1480 1480 1480 1479 1478 1477 1477 1475
1413 1413 1415 1417 1418 1419 1421 1425 1427 1429 1429 1430 1431 1433 1435 1438 1440 1442 1446 1448 1451 1453 1455 1456 1459 1460 1462 1464 1465 1467 1469 1470 1471 1472 1472 1472 1472 1472 1471 1470 1468 1467 1465
1419 1420 1420 1419 1420 1418 1418 1419 1421 1422 1424 1427 1428 1428 1431 1433 1435 1438 1440 1443 1445 1447 1450 1452 1454 1455 1457 1458 1460 1461 1463 1464 1465 1466 1465 1465 1464 1463 1462 1460 1459 1458 1456